User: anonymous   Login
Location: Sobotiste
(48.7170°N, 17.4000°E)
Time: 18:25:46
(UTC+01:00)
Language:

KKS-1 - Orbit

View from above orbital plane
View from above orbital plane
View from above satellite
View from above satellite

Ground track
Ground track

The orbit is defined by the following mean orbital elements,

1 33499U          26073.25588436 +.00000000 +00000-0 +24389-3 0 00009
2 33499  98.1185 354.2207 0006632 232.8662 127.1946 14.82848926    03
Epoch (UTC): 14 March 2026 06:08:28
Eccentricity: 0.0006632
inclination: 98.1185°
perigee height: 616 km
apogee height: 625 km
right ascension of ascending node: 354.2207°
argument of perigee: 232.8662°
revolutions per day: 14.82848926
mean anomaly at epoch: 127.1946°

The dashed part of the orbit path shows where the satellite is in the earth's shadow,  

DLR